| time (UTC) | temp F | wind direction | speed MPH | gust MPH | rain 1hr in | rain 24hr in | rain mn in | humidity % | barometer mb |
| 20260901122625 | 0 | 270 | 6.0 | 11.0 | 0.00 | 0.00 | 0.00 | 1 | 1022.3 |
| 20260901121600 | 0 | 270 | 4.0 | 7.0 | 0.00 | 0.00 | 0.00 | 1 | 1022.4 |
| 20260901120554 | 0 | 270 | 1.0 | 2.0 | 0.00 | 0.00 | 0.00 | 1 | 1022.6 |
| 20260901115549 | 0 | 270 | 5.0 | 11.0 | 0.00 | 0.00 | 0.00 | 1 | 1022.6 |
| 20260901114544 | 0 | 270 | 5.0 | 11.0 | 0.00 | 0.00 | 0.00 | 1 | 1022.6 |
| 20260901113539 | 0 | 270 | 3.0 | 9.0 | 0.00 | 0.00 | 0.00 | 1 | 1022.7 |
| 20260901112534 | 0 | 270 | 3.0 | 8.0 | 0.00 | 0.00 | 0.00 | 1 | 1022.7 |
| 20260901111529 | 0 | 270 | 5.0 | 11.0 | 0.00 | 0.00 | 0.00 | 1 | 1022.7 |
| 20260901110523 | 0 | 270 | 4.0 | 9.0 | 0.00 | 0.00 | 0.00 | 1 | 1022.8 |
| 20260901105518 | 0 | 270 | 4.0 | 8.0 | 0.00 | 0.00 | 0.00 | 1 | 1022.9 |
| 20260901104613 | 0 | 270 | 4.0 | 8.0 | 0.00 | 0.00 | 0.00 | 1 | 1023.0 |
| 20260901103609 | 0 | 270 | 3.0 | 9.0 | 0.00 | 0.00 | 0.00 | 1 | 1023.2 |
| 20260901102603 | 0 | 270 | 5.0 | 8.0 | 0.00 | 0.00 | 0.00 | 1 | 1023.0 |
| 20260901101559 | 0 | 270 | 5.0 | 9.0 | 0.00 | 0.00 | 0.00 | 1 | 1023.2 |
| 20260901100554 | 0 | 270 | 6.0 | 11.0 | 0.00 | 0.00 | 0.00 | 1 | 1023.1 |
| 20260901095549 | 0 | 270 | 7.0 | 11.0 | 0.00 | 0.00 | 0.00 | 1 | 1023.2 |
| 20260901094602 | 0 | 270 | 7.0 | 11.0 | 0.00 | 0.00 | 0.00 | 1 | 1023.1 |
| 20260901093537 | 0 | 270 | 6.0 | 11.0 | 0.00 | 0.00 | 0.00 | 1 | 1023.2 |
| 20260901092552 | 0 | 270 | 5.0 | 14.0 | 0.00 | 0.00 | 0.00 | 1 | 1023.2 |
| 20260901091527 | 0 | 270 | 7.0 | 11.0 | 0.00 | 0.00 | 0.00 | 1 | 1023.2 |
| 20260901090542 | 0 | 270 | 6.0 | 11.0 | 0.00 | 0.00 | 0.00 | 1 | 1023.3 |
| 20260901085518 | 0 | 270 | 9.0 | 16.0 | 0.00 | 0.00 | 0.00 | 1 | 1023.2 |
| 20260901084612 | 0 | 270 | 5.0 | 13.0 | 0.00 | 0.00 | 0.00 | 1 | 1023.1 |
| 20260901083606 | 0 | 270 | 8.0 | 16.0 | 0.00 | 0.00 | 0.00 | 1 | 1023.2 |
| 20260901082602 | 0 | 270 | 5.0 | 14.0 | 0.00 | 0.00 | 0.00 | 1 | 1023.2 |
| 20260901081556 | 0 | 270 | 7.0 | 14.0 | 0.00 | 0.00 | 0.00 | 1 | 1023.0 |
| 20260901080551 | 0 | 270 | 8.0 | 15.0 | 0.00 | 0.00 | 0.00 | 1 | 1023.0 |
| 20260901075546 | 0 | 270 | 10.0 | 16.0 | 0.00 | 0.00 | 0.00 | 1 | 1023.2 |
| 20260901074541 | 0 | 270 | 9.0 | 16.0 | 0.00 | 0.00 | 0.00 | 1 | 1023.1 |
| 20260901073536 | 0 | 270 | 9.0 | 16.0 | 0.00 | 0.00 | 0.00 | 1 | 1023.0 |
| 20260901072531 | 0 | 270 | 8.0 | 14.0 | 0.00 | 0.00 | 0.00 | 1 | 1023.0 |
| 20260901071526 | 0 | 270 | 8.0 | 14.0 | 0.00 | 0.00 | 0.00 | 1 | 1022.8 |
| 20260901070521 | 0 | 270 | 8.0 | 13.0 | 0.00 | 0.00 | 0.00 | 1 | 1022.9 |
| 20260901065615 | 0 | 270 | 8.0 | 15.0 | 0.00 | 0.00 | 0.00 | 1 | 1022.9 |
| 20260901064631 | 0 | 270 | 7.0 | 11.0 | 0.00 | 0.00 | 0.00 | 1 | 1022.8 |
| 20260901063605 | 0 | 270 | 9.0 | 14.0 | 0.00 | 0.00 | 0.00 | 1 | 1022.9 |
| 20260901062619 | 0 | 270 | 8.0 | 17.0 | 0.00 | 0.00 | 0.00 | 1 | 1022.8 |
| 20260901061554 | 0 | 270 | 12.0 | 17.0 | 0.00 | 0.00 | 0.00 | 1 | 1022.8 |
| 20260901060549 | 0 | 270 | 9.0 | 14.0 | 0.00 | 0.00 | 0.00 | 1 | 1022.8 |
| 20260901055544 | 0 | 270 | 8.0 | 15.0 | 0.00 | 0.00 | 0.00 | 1 | 1022.8 |
| 20260901054539 | 0 | 270 | 8.0 | 13.0 | 0.00 | 0.00 | 0.00 | 1 | 1022.8 |
| 20260901053534 | 0 | 270 | 9.0 | 14.0 | 0.00 | 0.00 | 0.00 | 1 | 1022.7 |
| 20260901052528 | 0 | 270 | 9.0 | 15.0 | 0.00 | 0.00 | 0.00 | 1 | 1022.7 |
| 20260901051523 | 0 | 270 | 8.0 | 13.0 | 0.00 | 0.00 | 0.00 | 1 | 1022.5 |
| 20260901050518 | 0 | 270 | 9.0 | 14.0 | 0.00 | 0.00 | 0.00 | 1 | 1022.5 |
| 20260901045613 | 0 | 270 | 7.0 | 11.0 | 0.00 | 0.00 | 0.00 | 1 | 1022.5 |
| 20260901044607 | 0 | 270 | 9.0 | 14.0 | 0.00 | 0.00 | 0.00 | 1 | 1022.4 |
| 20260901043602 | 0 | 270 | 9.0 | 18.0 | 0.00 | 0.00 | 0.00 | 1 | 1022.6 |
| 20260901042557 | 0 | 270 | 11.0 | 17.0 | 0.00 | 0.00 | 0.00 | 1 | 1022.6 |
| 20260901041552 | 0 | 270 | 9.0 | 16.0 | 0.00 | 0.00 | 0.00 | 1 | 1022.5 |
| 20260901040547 | 0 | 270 | 8.0 | 16.0 | 0.00 | 0.00 | 0.00 | 1 | 1022.6 |
| 20260901035542 | 0 | 270 | 8.0 | 13.0 | 0.00 | 0.00 | 0.00 | 1 | 1022.6 |
| 20260901034556 | 0 | 270 | 5.0 | 8.0 | 0.00 | 0.00 | 0.00 | 1 | 1022.6 |
| 20260901033532 | 0 | 270 | 7.0 | 14.0 | 0.00 | 0.00 | 0.00 | 1 | 1022.6 |
| 20260901032527 | 0 | 270 | 7.0 | 11.0 | 0.00 | 0.00 | 0.00 | 1 | 1022.7 |
| 20260901031520 | 0 | 270 | 7.0 | 13.0 | 0.00 | 0.00 | 0.00 | 1 | 1022.8 |
| 20260901030616 | 0 | 270 | 7.0 | 13.0 | 0.00 | 0.00 | 0.00 | 1 | 1022.8 |
| 20260901025611 | 0 | 270 | 7.0 | 14.0 | 0.00 | 0.00 | 0.00 | 1 | 1022.9 |
| 20260901024606 | 0 | 270 | 7.0 | 13.0 | 0.00 | 0.00 | 0.00 | 1 | 1022.8 |
| 20260901023600 | 0 | 270 | 7.0 | 13.0 | 0.00 | 0.00 | 0.00 | 1 | 1022.9 |
| 20260901022615 | 0 | 270 | 5.0 | 11.0 | 0.00 | 0.00 | 0.00 | 1 | 1022.9 |
| 20260901021549 | 0 | 270 | 5.0 | 11.0 | 0.00 | 0.00 | 0.00 | 1 | 1023.1 |
| 20260901020626 | 0 | 270 | 6.0 | 11.0 | 0.00 | 0.00 | 0.00 | 1 | 1023.0 |
| 20260901015540 | 0 | 270 | 6.0 | 14.0 | 0.00 | 0.00 | 0.00 | 1 | 1023.1 |
| 20260901014535 | 0 | 270 | 9.0 | 16.0 | 0.00 | 0.00 | 0.00 | 1 | 1023.3 |
| 20260901013529 | 0 | 270 | 6.0 | 11.0 | 0.00 | 0.00 | 0.00 | 1 | 1023.3 |
| 20260901012524 | 0 | 270 | 5.0 | 11.0 | 0.00 | 0.00 | 0.00 | 1 | 1023.6 |
| 20260901011518 | 0 | 270 | 6.0 | 11.0 | 0.00 | 0.00 | 0.00 | 1 | 1023.5 |
| 20260901010613 | 0 | 270 | 7.0 | 11.0 | 0.00 | 0.00 | 0.00 | 1 | 1023.6 |
| 20260901005608 | 0 | 270 | 8.0 | 14.0 | 0.00 | 0.00 | 0.00 | 1 | 1023.7 |
| 20260901004602 | 0 | 270 | 6.0 | 13.0 | 0.00 | 0.00 | 0.00 | 1 | 1023.8 |
| 20260901003558 | 0 | 270 | 7.0 | 13.0 | 0.00 | 0.00 | 0.00 | 1 | 1023.9 |
| 20260901002612 | 0 | 270 | 6.0 | 13.0 | 0.00 | 0.00 | 0.00 | 1 | 1023.9 |
| 20260901001548 | 0 | 270 | 7.0 | 13.0 | 0.00 | 0.00 | 0.00 | 1 | 1023.9 |
| 20260901000542 | 0 | 270 | 8.0 | 11.0 | 0.00 | 0.00 | 0.00 | 1 | 1023.8 |
| 20260831235538 | 0 | 270 | 7.0 | 11.0 | 0.00 | 0.00 | 0.00 | 1 | 1023.8 |
| 20260831234551 | 0 | 270 | 6.0 | 11.0 | 0.00 | 0.00 | 0.00 | 1 | 1023.9 |
| 20260831233526 | 0 | 270 | 7.0 | 11.0 | 0.00 | 0.00 | 0.00 | 1 | 1023.9 |
| 20260831232521 | 0 | 270 | 7.0 | 11.0 | 0.00 | 0.00 | 0.00 | 1 | 1024.0 |
| 20260831231615 | 0 | 270 | 8.0 | 15.0 | 0.00 | 0.00 | 0.00 | 1 | 1024.3 |
| 20260831230610 | 0 | 270 | 8.0 | 13.0 | 0.00 | 0.00 | 0.00 | 1 | 1024.3 |
| 20260831225627 | 0 | 270 | 9.0 | 14.0 | 0.00 | 0.00 | 0.00 | 1 | 1024.4 |
| 20260831224640 | 0 | 270 | 8.0 | 14.0 | 0.00 | 0.00 | 0.00 | 1 | 1024.4 |
| 20260831223615 | 0 | 270 | 7.0 | 14.0 | 0.00 | 0.00 | 0.00 | 1 | 1024.5 |
| 20260831222610 | 0 | 270 | 9.0 | 16.0 | 0.00 | 0.00 | 0.00 | 1 | 1024.5 |
| 20260831221605 | 0 | 270 | 8.0 | 13.0 | 0.00 | 0.00 | 0.00 | 1 | 1024.6 |
| 20260831220701 | 0 | 270 | 9.0 | 15.0 | 0.00 | 0.00 | 0.00 | 1 | 1024.4 |
| 20260831215556 | 0 | 270 | 7.0 | 15.0 | 0.00 | 0.00 | 0.00 | 1 | 1024.6 |
| 20260831214529 | 0 | 270 | 9.0 | 16.0 | 0.00 | 0.00 | 0.00 | 1 | 1024.6 |
| 20260831213524 | 0 | 270 | 7.0 | 13.0 | 0.00 | 0.00 | 0.00 | 1 | 1024.6 |
| 20260831212519 | 0 | 270 | 8.0 | 15.0 | 0.00 | 0.00 | 0.00 | 1 | 1024.3 |
| 20260831211614 | 0 | 270 | 9.0 | 15.0 | 0.00 | 0.00 | 0.00 | 1 | 1024.2 |
| 20260831210629 | 0 | 270 | 9.0 | 16.0 | 0.00 | 0.00 | 0.00 | 1 | 1024.2 |
| 20260831205624 | 0 | 270 | 9.0 | 17.0 | 0.00 | 0.00 | 0.00 | 1 | 1024.1 |
| 20260831204559 | 0 | 270 | 9.0 | 17.0 | 0.00 | 0.00 | 0.00 | 1 | 1024.0 |
| 20260831203554 | 0 | 270 | 9.0 | 15.0 | 0.00 | 0.00 | 0.00 | 1 | 1023.9 |
| 20260831202549 | 0 | 270 | 7.0 | 14.0 | 0.00 | 0.00 | 0.00 | 1 | 1023.8 |
| 20260831201605 | 0 | 270 | 9.0 | 17.0 | 0.00 | 0.00 | 0.00 | 1 | 1023.7 |
| 20260831200538 | 0 | 270 | 10.0 | 18.0 | 0.00 | 0.00 | 0.00 | 1 | 1023.4 |
| 20260831195553 | 0 | 270 | 10.0 | 17.0 | 0.00 | 0.00 | 0.00 | 1 | 1023.2 |
| 20260831194528 | 0 | 270 | 9.0 | 16.0 | 0.00 | 0.00 | 0.00 | 1 | 1023.2 |
| 20260831193543 | 0 | 270 | 9.0 | 16.0 | 0.00 | 0.00 | 0.00 | 1 | 1023.0 |
| 20260831192653 | 0 | 270 | 9.0 | 16.0 | 0.00 | 0.00 | 0.00 | 1 | 1023.0 |
| 20260831191602 | 0 | 270 | 7.0 | 11.0 | 0.00 | 0.00 | 0.00 | 1 | 1023.1 |
| 20260831190551 | 0 | 270 | 9.0 | 22.0 | 0.00 | 0.00 | 0.00 | 1 | 1022.9 |
| 20260831185546 | 0 | 270 | 8.0 | 16.0 | 0.00 | 0.00 | 0.00 | 1 | 1022.8 |
| 20260831184556 | 0 | 270 | 10.0 | 17.0 | 0.00 | 0.00 | 0.00 | 1 | 1022.7 |
| 20260831183525 | 0 | 270 | 11.0 | 20.0 | 0.00 | 0.00 | 0.00 | 1 | 1022.7 |
| 20260831182616 | 0 | 270 | 11.0 | 17.0 | 0.00 | 0.00 | 0.00 | 1 | 1022.7 |
| 20260831181611 | 0 | 270 | 8.0 | 14.0 | 0.00 | 0.00 | 0.00 | 1 | 1022.7 |
| 20260831180601 | 0 | 270 | 9.0 | 16.0 | 0.00 | 0.00 | 0.00 | 1 | 1022.7 |
| 20260831175552 | 0 | 270 | 15.0 | 21.0 | 0.00 | 0.00 | 0.00 | 1 | 1022.7 |
| 20260831174546 | 0 | 270 | 11.0 | 18.0 | 0.00 | 0.00 | 0.00 | 1 | 1022.6 |
| 20260831173537 | 0 | 270 | 12.0 | 21.0 | 0.00 | 0.00 | 0.00 | 1 | 1022.7 |
| 20260831172528 | 0 | 270 | 11.0 | 17.0 | 0.00 | 0.00 | 0.00 | 1 | 1022.7 |
| 20260831171522 | 0 | 270 | 11.0 | 22.0 | 0.00 | 0.00 | 0.00 | 1 | 1022.5 |
| 20260831170614 | 0 | 270 | 11.0 | 23.0 | 0.00 | 0.00 | 0.00 | 1 | 1022.8 |
| 20260831165604 | 0 | 270 | 12.0 | 21.0 | 0.00 | 0.00 | 0.00 | 1 | 1022.8 |
| 20260831164559 | 0 | 270 | 9.0 | 15.0 | 0.00 | 0.00 | 0.00 | 1 | 1022.9 |
| 20260831163549 | 0 | 270 | 7.0 | 16.0 | 0.00 | 0.00 | 0.00 | 1 | 1022.8 |
| 20260831162540 | 0 | 270 | 10.0 | 18.0 | 0.00 | 0.00 | 0.00 | 1 | 1022.8 |
| 20260831161556 | 0 | 270 | 10.0 | 18.0 | 0.00 | 0.00 | 0.00 | 1 | 1022.8 |
| 20260831160525 | 0 | 270 | 11.0 | 18.0 | 0.00 | 0.00 | 0.00 | 1 | 1022.8 |
| 20260831155635 | 0 | 270 | 9.0 | 20.0 | 0.00 | 0.00 | 0.00 | 1 | 1022.8 |
| 20260831154610 | 0 | 270 | 11.0 | 22.0 | 0.00 | 0.00 | 0.00 | 1 | 1022.8 |
| 20260831153619 | 0 | 270 | 7.0 | 14.0 | 0.00 | 0.00 | 0.00 | 1 | 1022.8 |
| 20260831152610 | 0 | 270 | 7.0 | 13.0 | 0.00 | 0.00 | 0.00 | 1 | 1022.8 |
| 20260831151600 | 0 | 270 | 7.0 | 16.0 | 0.00 | 0.00 | 0.00 | 1 | 1022.9 |
| 20260831150534 | 0 | 270 | 9.0 | 17.0 | 0.00 | 0.00 | 0.00 | 1 | 1023.1 |
| 20260831145524 | 0 | 270 | 7.0 | 15.0 | 0.00 | 0.00 | 0.00 | 1 | 1023.0 |
| 20260831144613 | 0 | 270 | 8.0 | 14.0 | 0.00 | 0.00 | 0.00 | 1 | 1023.1 |
| 20260831143604 | 0 | 270 | 8.0 | 20.0 | 0.00 | 0.00 | 0.00 | 1 | 1023.1 |
| 20260831142559 | 0 | 270 | 7.0 | 14.0 | 0.00 | 0.00 | 0.00 | 1 | 1023.2 |
| 20260831141549 | 0 | 270 | 5.0 | 11.0 | 0.00 | 0.00 | 0.00 | 1 | 1023.3 |
| 20260831140538 | 0 | 270 | 7.0 | 15.0 | 0.00 | 0.00 | 0.00 | 1 | 1023.3 |
| 20260831135527 | 0 | 270 | 6.0 | 11.0 | 0.00 | 0.00 | 0.00 | 1 | 1023.4 |
| 20260831134522 | 0 | 270 | 7.0 | 11.0 | 0.00 | 0.00 | 0.00 | 1 | 1023.4 |
| 20260831133614 | 0 | 270 | 8.0 | 14.0 | 0.00 | 0.00 | 0.00 | 1 | 1023.5 |
| 20260831132603 | 0 | 270 | 6.0 | 11.0 | 0.00 | 0.00 | 0.00 | 1 | 1023.6 |
| 20260831131558 | 0 | 270 | 5.0 | 11.0 | 0.00 | 0.00 | 0.00 | 1 | 1023.6 |
| 20260831130609 | 0 | 270 | 5.0 | 11.0 | 0.00 | 0.00 | 0.00 | 1 | 1023.7 |
| 20260831125541 | 0 | 270 | 7.0 | 13.0 | 0.00 | 0.00 | 0.00 | 1 | 1023.7 |
| 20260831124534 | 0 | 270 | 7.0 | 13.0 | 0.00 | 0.00 | 0.00 | 1 | 1023.9 |
| 20260831123545 | 0 | 270 | 5.0 | 11.0 | 0.00 | 0.00 | 0.00 | 1 | 1023.9 |